Hourly Data Report for June 26, 2017

FISHER BRANCH (AUT)
MANITOBA

51°05'00.100" N
97°33'16.200" W
253.00 m
50309J6
71442
WSZ

Download Data

Hourly Data (June 2017)
Hourly Data Report for June 26, 2017
TIME
LST
Temp Definition
°C
Dew Point Definition
°C
Rel Hum Definition
%
Precip. Amount Definition
mm

Wind Dir Definition
10's deg

Wind Spd Definition
km/h
Visibility Definition
km
Stn Press Definition
kPa
Hmdx Definition


Wind Chill Definition


Weather Definition


00:00 10.4 6.2 75 0.0 25 12   99.09     LegendNANA
01:00 10.3 6.8 79 0.0 25 12   99.06     LegendNANA
02:00 9.5 6.8 83 0.0 25 9   99.06     LegendNANA
03:00 10.2 6.7 79 0.0 26 9   99.04     LegendNANA
04:00 9.6 5.8 77 0.0 26 9   99.04     LegendNANA
05:00 10.3 6.4 77 0.0 27 7   99.04     LegendNANA
06:00 12.2 7.8 74 0.0 28 7   99.05     LegendNANA
07:00 14.2 9.3 72 0.0 29 11   99.06     LegendNANA
08:00 16.7 9.2 61 0.0 30 11   99.08     LegendNANA
09:00 18.4 8.1 51 0.0 32 11   99.06     LegendNANA
10:00 20.1 7.9 45 0.0 29 18   99.03     LegendNANA
11:00 20.7 6.1 38 0.0 32 17   99.00     LegendNANA
12:00 21.7 5.1 34 0.0 33 16   98.95     LegendNANA
13:00 22.1 4.2 31 0.0 31 15   98.89     LegendNANA
14:00 22.6 6.1 35 0.0 29 14   98.83     LegendNANA
15:00 22.5 6.1 35 0.0 27 12   98.77     LegendNANA
16:00 23.1 6.5 34 0.0 25 14   98.71     LegendNANA
17:00 22.1 2.8 28 0.0 27 14   98.67     LegendNANA
18:00 21.9 3.4 30 0.0 25 15   98.59     LegendNANA
19:00 21.4 4.5 33 0.0 26 10   98.52     LegendNANA
20:00 19.2 6.0 42 0.0 21 9   98.47     LegendNANA
21:00 15.4 7.2 58 0.0 17 6   98.43     LegendNANA
22:00 13.9 7.0 63 0.0 18 8   98.38     LegendNANA
23:00 12.6 7.0 68 0.0 18 9   98.31     LegendNANA

Notes on Data Quality.

Legend

  • E = Estimated
  • M = Missing
  • NA = Not Available*
  • [empty] = Indicates an unobserved value
Date modified: